Time_in_sec,gx,gy,gz
1326902664.96966815,0.00889443,0.05459659,-0.99846888
1326902665.01752901,0.00875163,0.05469579,-0.99846471
1326902665.06950641,0.00888726,0.05474360,-0.99846089
1326902665.11749339,0.00892701,0.05475010,-0.99846018
1326902665.16903949,0.00890263,0.05495415,-0.99844919
1326902665.21732306,0.00899410,0.05455106,-0.99847047
1326902665.26950216,0.00875726,0.05461749,-0.99846895
1326902665.32161403,0.00846542,0.05490983,-0.99845543
1326902665.36855698,0.00845657,0.05497932,-0.99845168
1326902665.41755390,0.00850444,0.05522150,-0.99843791
1326902665.46957517,0.00873256,0.05474627,-0.99846211
1326902665.51752925,0.00878154,0.05443545,-0.99847868
1326902665.56862473,0.00874161,0.05474661,-0.99846201
1326902665.61754727,0.00871688,0.05478809,-0.99845995
1326902665.67064238,0.00867498,0.05504931,-0.99844595
1326902665.71772623,0.00885333,0.05473514,-0.99846166
1326902665.76964521,0.00872108,0.05471481,-0.99846394
1326902665.81752658,0.00868063,0.05478845,-0.99846025
1326902665.86965132,0.00849978,0.05476830,-0.99846291
1326902665.91752219,0.00843074,0.05502905,-0.99844916
1326902665.96954918,0.00853623,0.05516002,-0.99844104
1326902666.01754785,0.00855422,0.05529725,-0.99843329
1326902666.06949592,0.00852446,0.05555811,-0.99841907
1326902666.11660147,0.00855383,0.05582564,-0.99840389
1326902666.16959476,0.00866000,0.05598923,-0.99839382
1326902666.21750879,0.00864758,0.05588451,-0.99839979
1326902666.26864147,0.00859936,0.05576431,-0.99840693
1326902666.32152081,0.00881861,0.05599810,-0.99839193
1326902666.36862731,0.00890170,0.05602871,-0.99838947
1326902666.42052412,0.00887161,0.05604377,-0.99838890
1326902666.46952343,0.00889210,0.05537705,-0.99842592
1326902666.51787519,0.00892708,0.05545543,-0.99842125
1326902666.56860709,0.00890957,0.05569432,-0.99840811
1326902666.61749601,0.00897524,0.05583605,-0.99839961
1326902666.66951799,0.00892619,0.05591640,-0.99839555
1326902666.71751952,0.00907114,0.05549651,-0.99841767
1326902666.76947355,0.00919333,0.05574551,-0.99840268
1326902666.81763172,0.00915110,0.05584287,-0.99839763
1326902666.86961174,0.00913410,0.05589458,-0.99839489
1326902666.91769004,0.00934669,0.05620879,-0.99837529
1326902666.97062325,0.00919578,0.05563288,-0.99840894
1326902667.01752305,0.00934827,0.05556997,-0.99841103
1326902667.06953311,0.00940254,0.05553448,-0.99841250
1326902667.11752081,0.00917728,0.05560366,-0.99841074
1326902667.16951752,0.00924413,0.05571271,-0.99840405
1326902667.21747899,0.00897544,0.05553916,-0.99841617
1326902667.27352715,0.00924688,0.05553542,-0.99841390
1326902667.31754756,0.00926917,0.05548441,-0.99841653
1326902667.36955237,0.00912899,0.05559717,-0.99841155
1326902667.42071557,0.00934964,0.05565470,-0.99840630
1326902667.47116613,0.00924183,0.05542684,-0.99841998
1326902667.51752138,0.00917076,0.05558928,-0.99841160
1326902667.56919241,0.00870938,0.05571530,-0.99840871
1326902667.62055087,0.00870783,0.05583229,-0.99840219
1326902667.67078304,0.00860213,0.05593160,-0.99839755
1326902667.72157049,0.00850420,0.05589980,-0.99840017
1326902667.76966429,0.00874881,0.05612241,-0.99838556
1326902667.81767368,0.00876836,0.05623311,-0.99837916
1326902667.86965513,0.00880852,0.05628091,-0.99837612
1326902667.91753149,0.00872764,0.05655237,-0.99836149
1326902667.96906924,0.00851181,0.05619418,-0.99838358
1326902668.01753306,0.00856255,0.05628727,-0.99837790
1326902668.06738138,0.00851690,0.05612126,-0.99838763
1326902668.11831689,0.00858685,0.05625415,-0.99837956
1326902668.16906309,0.00855084,0.05643004,-0.99836994
1326902668.21751738,0.00823508,0.05619110,-0.99838607
1326902668.26863480,0.00814111,0.05648868,-0.99837005
1326902668.31751800,0.00817366,0.05677342,-0.99835363
1326902668.36955476,0.00811660,0.05680323,-0.99835240
1326902668.42053342,0.00805259,0.05685940,-0.99834972
1326902668.46957183,0.00825912,0.05647850,-0.99836965
1326902668.51721406,0.00804691,0.05681039,-0.99835256
1326902668.56891704,0.00809966,0.05696934,-0.99834307
1326902668.61755776,0.00810255,0.05716067,-0.99833211
1326902668.66965294,0.00797968,0.05725348,-0.99832778
1326902668.72097349,0.00800095,0.05645889,-0.99837287
1326902668.76881027,0.00791919,0.05681307,-0.99835342
1326902668.81677628,0.00768165,0.05697276,-0.99834618
1326902668.87224841,0.00765922,0.05691606,-0.99834959
1326902668.91748524,0.00730810,0.05697533,-0.99834884
1326902668.96851373,0.00740486,0.05615997,-0.99839432
1326902669.01754141,0.00730218,0.05616581,-0.99839475
1326902669.06853509,0.00724389,0.05615040,-0.99839604
1326902669.11755896,0.00745502,0.05624247,-0.99838931
1326902669.16865134,0.00756276,0.05641673,-0.99837866
1326902669.22153640,0.00750793,0.05603498,-0.99840058
1326902669.26950645,0.00752573,0.05627629,-0.99838687
1326902669.32065201,0.00756261,0.05620654,-0.99839052
1326902669.36956620,0.00778956,0.05642055,-0.99837670
1326902669.42850304,0.00777681,0.05643987,-0.99837571
1326902669.47252274,0.00772830,0.05611460,-0.99839442
1326902669.51755452,0.00770924,0.05591498,-0.99840577
1326902669.56951928,0.00773304,0.05594084,-0.99840414
1326902669.61982107,0.00763458,0.05602508,-0.99840017
1326902669.66853714,0.00757756,0.05628807,-0.99838581
1326902669.72069526,0.00739847,0.05620288,-0.99839196
1326902669.76854992,0.00746845,0.05635517,-0.99838285
1326902669.81750941,0.00752030,0.05634853,-0.99838284
1326902669.86956739,0.00743768,0.05650886,-0.99837439
1326902669.91755080,0.00753874,0.05662885,-0.99836684
1326902669.96940517,0.00758092,0.05645751,-0.99837622
1326902670.02055407,0.00741915,0.05669368,-0.99836405
1326902670.06952333,0.00758577,0.05662455,-0.99836672
1326902670.11757493,0.00762360,0.05666376,-0.99836421
1326902670.16950035,0.00749814,0.05673484,-0.99836112
1326902670.21756411,0.00748468,0.05670828,-0.99836273
1326902670.26940012,0.00727495,0.05683128,-0.99835729
1326902670.31754827,0.00711144,0.05691958,-0.99835344
1326902670.36921835,0.00717963,0.05708939,-0.99834325
1326902670.42157125,0.00732066,0.05709635,-0.99834183
1326902670.47357106,0.00697593,0.05680027,-0.99836119
1326902670.51754117,0.00704978,0.05695705,-0.99835174
1326902670.56936002,0.00716410,0.05697245,-0.99835005
1326902670.61756682,0.00728182,0.05701833,-0.99834658
1326902670.66964746,0.00725981,0.05680912,-0.99835866
1326902670.71754169,0.00682148,0.05640924,-0.99838443
1326902670.76953816,0.00683032,0.05670938,-0.99836736
1326902670.82114410,0.00658616,0.05670380,-0.99836932
1326902670.86950541,0.00646822,0.05695340,-0.99835588
1326902670.92159247,0.00648352,0.05667255,-0.99837177
1326902670.96963835,0.00630957,0.05661571,-0.99837611
1326902671.01749921,0.00628498,0.05665015,-0.99837431
1326902671.06899953,0.00637918,0.05673737,-0.99836876
1326902671.11753607,0.00623069,0.05674520,-0.99836925
1326902671.16954017,0.00634569,0.05672804,-0.99836950
1326902671.22163606,0.00645128,0.05624209,-0.99839632
1326902671.26951265,0.00642278,0.05619594,-0.99839910
1326902671.31752324,0.00643764,0.05659399,-0.99837652
1326902671.36851883,0.00647066,0.05646982,-0.99838334
1326902671.41751432,0.00649659,0.05618458,-0.99839926
1326902671.46951199,0.00660340,0.05592088,-0.99841337
1326902671.51752639,0.00653263,0.05617929,-0.99839933
1326902671.56880045,0.00630350,0.05631297,-0.99839327
1326902671.62150908,0.00642810,0.05655262,-0.99837893
1326902671.66954350,0.00651757,0.05662690,-0.99837414
1326902671.71759033,0.00674165,0.05642007,-0.99838436
1326902671.76878381,0.00661947,0.05651722,-0.99837968
1326902671.81751156,0.00670841,0.05648905,-0.99838068
1326902671.86965442,0.00642946,0.05662033,-0.99837508
1326902671.91753316,0.00646343,0.05663545,-0.99837400
1326902671.96869111,0.00659706,0.05617454,-0.99839917
1326902672.01667905,0.00659896,0.05605894,-0.99840565
1326902672.07352138,0.00664021,0.05604572,-0.99840612
1326902672.12167859,0.00682500,0.05602873,-0.99840583
1326902672.16879463,0.00680564,0.05596956,-0.99840928
1326902672.22068310,0.00679818,0.05549410,-0.99843587
1326902672.26964474,0.00685022,0.05563986,-0.99842740
1326902672.32171106,0.00670252,0.05593709,-0.99841180
1326902672.36950517,0.00651126,0.05597303,-0.99841105
1326902672.42154503,0.00648501,0.05609885,-0.99840416
1326902672.47106504,0.00611597,0.05566600,-0.99843071
1326902672.51757169,0.00580388,0.05572315,-0.99842939
1326902672.56850410,0.00570517,0.05572916,-0.99842962
1326902672.61758351,0.00586933,0.05563172,-0.99843411
1326902672.66856050,0.00588500,0.05570124,-0.99843014
1326902672.71756220,0.00599182,0.05529642,-0.99845200
1326902672.76944447,0.00607495,0.05509854,-0.99846244
1326902672.81752348,0.00595537,0.05505189,-0.99846573
1326902672.86950350,0.00583154,0.05531012,-0.99845219
1326902672.92178154,0.00560184,0.05528928,-0.99845466
1326902672.96957064,0.00569062,0.05493529,-0.99847370
1326902673.01753545,0.00567474,0.05485227,-0.99847836
1326902673.06942439,0.00570083,0.05486329,-0.99847760
1326902673.11754799,0.00582209,0.05477432,-0.99848179
1326902673.16927099,0.00587339,0.05495488,-0.99847156
1326902673.22142506,0.00584675,0.05478851,-0.99848086
1326902673.26956463,0.00571442,0.05473956,-0.99848431
1326902673.31764698,0.00589532,0.05491835,-0.99847344
1326902673.36938119,0.00605347,0.05485566,-0.99847594
1326902673.41757512,0.00616822,0.05470143,-0.99848370
1326902673.46937442,0.00635317,0.05454028,-0.99849136
1326902673.51755738,0.00642764,0.05464020,-0.99848542
1326902673.56929088,0.00648146,0.05475670,-0.99847869
1326902673.62064624,0.00660578,0.05486473,-0.99847194
1326902673.67192507,0.00659869,0.05486547,-0.99847195
1326902673.72063088,0.00652938,0.05454863,-0.99848977
1326902673.76953053,0.00644562,0.05450424,-0.99849273
1326902673.82157588,0.00640411,0.05459077,-0.99848828
1326902673.86958933,0.00639621,0.05466878,-0.99848406
1326902673.91761684,0.00641493,0.05474246,-0.99847990
1326902673.97245216,0.00620498,0.05504362,-0.99846467
1326902674.01758981,0.00627623,0.05528956,-0.99845064
1326902674.06976914,0.00628540,0.05540467,-0.99844420
1326902674.11758924,0.00631958,0.05548718,-0.99843940
1326902674.16951895,0.00634190,0.05541078,-0.99844350
1326902674.21753812,0.00607364,0.05522540,-0.99845544
1326902674.26897621,0.00626671,0.05525424,-0.99845265
1326902674.31751037,0.00647001,0.05534193,-0.99844650
1326902674.36963725,0.00628456,0.05521669,-0.99845462
1326902674.41754818,0.00642071,0.05558055,-0.99843356
1326902674.46955609,0.00654382,0.05518404,-0.99845476
1326902674.52044797,0.00672595,0.05516709,-0.99845448
1326902674.56896448,0.00660323,0.05526852,-0.99844969
1326902674.61750579,0.00638765,0.05516496,-0.99845682
1326902674.66964221,0.00635433,0.05526458,-0.99845153
1326902674.71750784,0.00667298,0.05508133,-0.99845957
1326902674.76953983,0.00653456,0.05516960,-0.99845561
1326902674.81686473,0.00653212,0.05521629,-0.99845305
1326902674.86954451,0.00658066,0.05524559,-0.99845111
1326902674.91763568,0.00672034,0.05516862,-0.99845444
1326902674.96882558,0.00643643,0.05476684,-0.99847843
1326902675.01756620,0.00639744,0.05475442,-0.99847936
1326902675.06964779,0.00664271,0.05501531,-0.99846341
1326902675.11756277,0.00680512,0.05504508,-0.99846068
1326902675.16855025,0.00702662,0.05514264,-0.99845376
1326902675.22156549,0.00702325,0.05455076,-0.99848630
1326902675.27351880,0.00710850,0.05455850,-0.99848527
1326902675.31753564,0.00704884,0.05458734,-0.99848412
1326902675.36850953,0.00720935,0.05477816,-0.99847252
1326902675.42055321,0.00695271,0.05494338,-0.99846526
1326902675.46858597,0.00708434,0.05474661,-0.99847515
1326902675.52150464,0.00688022,0.05475310,-0.99847622
1326902675.56852174,0.00679997,0.05488194,-0.99846970
1326902675.62159204,0.00682519,0.05506570,-0.99845941
1326902675.66950893,0.00710251,0.05505238,-0.99845821
1326902675.71765351,0.00721191,0.05470578,-0.99847647
1326902675.76957297,0.00728003,0.05501817,-0.99845881
1326902675.81750464,0.00714330,0.05521425,-0.99844898
1326902675.86955452,0.00709225,0.05521055,-0.99844955
1326902675.91757774,0.00706824,0.05504809,-0.99845869
1326902675.96854091,0.00716886,0.05474653,-0.99847455
1326902676.02156281,0.00739172,0.05473072,-0.99847379
1326902676.06958938,0.00728734,0.05500958,-0.99845923
1326902676.12264657,0.00732048,0.05522383,-0.99844716
1326902676.17194796,0.00731959,0.05539872,-0.99843748
1326902676.21757317,0.00728198,0.05540483,-0.99843742
1326902676.26863933,0.00744319,0.05549334,-0.99843131
1326902676.31752086,0.00753199,0.05566658,-0.99842100
1326902676.36915708,0.00755734,0.05563639,-0.99842250
1326902676.42053270,0.00758824,0.05547732,-0.99843111
1326902676.46951079,0.00781722,0.05516066,-0.99844689
1326902676.51767111,0.00782808,0.05537346,-0.99843503
1326902676.56913137,0.00786330,0.05548645,-0.99842848
1326902676.61752057,0.00789735,0.05550570,-0.99842714
1326902676.66914940,0.00781915,0.05551062,-0.99842748
1326902676.71756458,0.00789531,0.05500494,-0.99845487
1326902676.76913786,0.00783595,0.05512107,-0.99844893
1326902676.81752920,0.00806813,0.05518381,-0.99844362
1326902676.87352586,0.00803282,0.05526945,-0.99843916
1326902676.91740942,0.00808354,0.05522233,-0.99844136
1326902676.96850491,0.00835677,0.05510997,-0.99844532
1326902677.02064395,0.00835051,0.05514991,-0.99844317
1326902677.06850410,0.00810929,0.05543905,-0.99842914
1326902677.11754346,0.00794914,0.05549369,-0.99842739
1326902677.16957617,0.00801016,0.05549702,-0.99842672
1326902677.22089577,0.00762143,0.05534650,-0.99843812
1326902677.26951075,0.00750297,0.05528585,-0.99844238
1326902677.31750965,0.00719250,0.05511574,-0.99845407
1326902677.36862421,0.00699832,0.05516131,-0.99845293
1326902677.41751838,0.00724648,0.05525028,-0.99844624
1326902677.46863198,0.00734966,0.05513055,-0.99845210
1326902677.51765275,0.00735019,0.05522278,-0.99844700
1326902677.56853437,0.00726373,0.05521887,-0.99844785
1326902677.61755776,0.00722186,0.05549595,-0.99843279
1326902677.66950178,0.00724365,0.05547065,-0.99843404
1326902677.71754336,0.00696586,0.05538718,-0.99844065
1326902677.76886916,0.00683656,0.05564419,-0.99842726
1326902677.81751847,0.00678178,0.05584288,-0.99841654
1326902677.86862230,0.00684480,0.05585911,-0.99841520
1326902677.91754985,0.00689700,0.05575132,-0.99842086
1326902677.96869683,0.00671610,0.05563971,-0.99842832
1326902678.01763844,0.00661779,0.05565093,-0.99842835
1326902678.06952262,0.00657920,0.05566898,-0.99842760
1326902678.12004638,0.00664551,0.05582891,-0.99841823
1326902678.16860747,0.00650749,0.05603152,-0.99840779
1326902678.22149825,0.00619829,0.05590815,-0.99841668
1326902678.26859856,0.00627022,0.05600282,-0.99841092
1326902678.32151771,0.00613520,0.05610524,-0.99840601
1326902678.36860323,0.00616847,0.05591906,-0.99841625
1326902678.42164421,0.00624679,0.05586138,-0.99841899
1326902678.47205329,0.00572735,0.05561031,-0.99843612
1326902678.52057242,0.00592595,0.05550955,-0.99844057
1326902678.56859708,0.00608732,0.05566335,-0.99843104
1326902678.61755252,0.00598980,0.05549190,-0.99844117
1326902678.66853333,0.00616114,0.05555872,-0.99843641
1326902678.71761370,0.00582087,0.05532293,-0.99845155
1326902678.76954365,0.00597376,0.05528936,-0.99845250
1326902678.82144928,0.00616162,0.05526487,-0.99845272
1326902678.86989117,0.00622080,0.05523752,-0.99845386
1326902678.92082191,0.00603143,0.05506993,-0.99846428
1326902678.96957159,0.00626684,0.05475698,-0.99848004
1326902679.02848721,0.00615080,0.05480070,-0.99847837
1326902679.07262421,0.00635589,0.05492186,-0.99847043
1326902679.11756492,0.00634384,0.05495120,-0.99846889
1326902679.16934395,0.00607643,0.05494203,-0.99847106
1326902679.22063661,0.00630783,0.05474954,-0.99848019
1326902679.26951981,0.00632626,0.05478955,-0.99847788
1326902679.32063651,0.00662861,0.05475247,-0.99847796
1326902679.36864829,0.00674890,0.05464925,-0.99848280
1326902679.41751838,0.00679074,0.05458271,-0.99848616
1326902679.46856380,0.00655464,0.05445289,-0.99849483
1326902679.51755095,0.00648283,0.05449908,-0.99849278
1326902679.56921196,0.00658687,0.05456339,-0.99848858
1326902679.62155533,0.00634840,0.05473069,-0.99848097
1326902679.66950250,0.00621447,0.05492241,-0.99847129
1326902679.71723843,0.00609610,0.05484054,-0.99847652
1326902679.76906109,0.00613258,0.05492635,-0.99847158
1326902679.82152653,0.00634672,0.05514787,-0.99845803
1326902679.86957288,0.00618787,0.05499545,-0.99846743
1326902679.91755700,0.00614120,0.05514374,-0.99845954
1326902679.96899199,0.00641831,0.05448934,-0.99849372
1326902680.02055430,0.00646173,0.05445547,-0.99849529
1326902680.07063460,0.00644133,0.05438211,-0.99849942
1326902680.12105060,0.00645381,0.05447429,-0.99849432
1326902680.16962838,0.00628178,0.05437203,-0.99850099
1326902680.21754169,0.00611256,0.05435767,-0.99850282
1326902680.26901913,0.00630918,0.05446595,-0.99849570
1326902680.31756043,0.00626059,0.05460148,-0.99848860
1326902680.36853147,0.00624351,0.05459340,-0.99848915
1326902680.42172861,0.00625780,0.05475965,-0.99847996
1326902680.46950841,0.00608782,0.05443915,-0.99849853
1326902680.51757479,0.00579491,0.05432971,-0.99850624
1326902680.56965256,0.00554145,0.05427044,-0.99851090
1326902680.61750984,0.00561243,0.05424118,-0.99851209
1326902680.66863036,0.00564179,0.05412699,-0.99851812
1326902680.71750832,0.00576905,0.05412543,-0.99851748
1326902680.76955175,0.00556879,0.05402938,-0.99852382
1326902680.81676006,0.00557094,0.05417136,-0.99851611
1326902680.86974072,0.00520223,0.05419663,-0.99851673
1326902680.92148542,0.00493781,0.05437033,-0.99850863
1326902680.96964955,0.00508589,0.05401659,-0.99852709
1326902681.02552438,0.00499574,0.05400585,-0.99852812
1326902681.06866431,0.00500418,0.05398677,-0.99852911
1326902681.12150693,0.00497328,0.05407859,-0.99852430
1326902681.16865516,0.00483914,0.05448960,-0.99850261
1326902681.22065687,0.00467660,0.05443304,-0.99850647
1326902681.26951075,0.00478703,0.05468717,-0.99849206
1326902681.31756234,0.00481471,0.05483822,-0.99848364
1326902681.37179828,0.00475127,0.05462743,-0.99849550
1326902681.42155099,0.00470563,0.05471692,-0.99849082
1326902681.46947312,0.00448635,0.05448378,-0.99850458
1326902681.51753998,0.00436267,0.05472729,-0.99849181
1326902681.56947136,0.00442108,0.05485429,-0.99848458
1326902681.62164450,0.00442970,0.05476760,-0.99848930
1326902681.67351294,0.00410400,0.05477562,-0.99849025
1326902681.71756363,0.00425872,0.05455051,-0.99850193
1326902681.76932907,0.00412976,0.05450014,-0.99850522
1326902681.82151270,0.00412552,0.05452056,-0.99850413
1326902681.86852193,0.00415991,0.05447971,-0.99850621
1326902681.91747642,0.00417185,0.05475021,-0.99849137
1326902681.96947956,0.00408442,0.05450364,-0.99850522
1326902682.02060986,0.00425455,0.05455922,-0.99850147
1326902682.07118988,0.00435612,0.05438623,-0.99851047
1326902682.12414813,0.00418962,0.05439017,-0.99851097
1326902682.16863251,0.00394751,0.05445039,-0.99850867
1326902682.21751666,0.00419014,0.05431586,-0.99851501
1326902682.26864409,0.00420927,0.05445141,-0.99850755
1326902682.31762743,0.00413018,0.05444722,-0.99850811
1326902682.36955428,0.00420370,0.05456986,-0.99850111
1326902682.41861606,0.00429465,0.05454978,-0.99850182
1326902682.46949863,0.00394992,0.05464394,-0.99849809
1326902682.52163315,0.00383760,0.05463085,-0.99849925
1326902682.56864429,0.00393603,0.05457051,-0.99850216
1326902682.61754751,0.00391323,0.05456020,-0.99850281
1326902682.66918015,0.00389003,0.05469565,-0.99849549
1326902682.71749973,0.00400104,0.05433058,-0.99851499
1326902682.77751565,0.00410415,0.05454486,-0.99850289
1326902682.82154226,0.00418385,0.05469137,-0.99849454
1326902682.87374735,0.00410860,0.05468533,-0.99849518
